User: anonymous   Login
Location: Altleiningen
(49.5078°N, 8.0741°E)
Time: 00:03:13
(UTC+00:00)
Language:

CZ-2C R/B - Orbit

View from above orbital plane
View from above orbital plane
View from above satellite
View from above satellite

Ground track
Ground track

The orbit data is extracted from the following two-line orbital elements,

1 31114U 07010B   21129.55845941 -.00000003  00000-0  17083-4 0  9991
2 31114  98.2350 326.0034 0060465  37.2139 323.3206 14.19359183729262
Epoch (UTC): 09 May 2021 13:24:10
Eccentricity: 0.0060465
inclination: 98.2350°
perigee height: 784 km
apogee height: 871 km
right ascension of ascending node: 326.0034°
argument of perigee: 37.2139°
revolutions per day: 14.19359183
mean anomaly at epoch: 323.3206°
orbit number at epoch: 72926

The dashed part of the orbit path shows where the satellite is in the earth's shadow,  

DLR